CAPE
0 0 0 0 0 0 0 0 0 0 13 12 23 126 112 127 499 311 357 548 1281 1516 1688 1803 1858 1631 1395 1040 1001 1007 1063 1091 963 987 1167 1288 1275 1109 877 873 884 649 522 521 470 489 542 566 542
0 0 0 0 0 0 0 0 0 0 0 16 13 45 118 9 74 1066 738 1066 1351 1556 1636 1567 1788 1557 1351 994 846 981 1112 1218 1083 998 942 989 1103 996 614 767 758 618 515 542 699 800 784 702 462
0 0 0 0 0 0 0 0 0 1 2 88 6 5 120 125 314 1028 1068 1184 1455 1420 1495 1496 1700 1443 1368 1009 792 996 1118 1244 1247 1017 911 762 778 816 912 903 877 579 652 808 886 1025 888 426 382
0 0 0 0 0 0 0 0 0 27 18 56 18 269 194 243 1152 1018 1189 1431 1404 1232 1340 1754 1583 1436 1387 1088 839 997 1086 1292 1400 1104 874 795 633 878 921 899 931 812 610 625 1053 1064 503 402 345
0 0 0 0 0 0 0 0 0 0 8 82 124 166 63 671 1073 1224 1242 1316 1136 1015 1297 1455 1504 1420 1419 1215 885 958 1091 1287 1485 1325 960 815 839 806 892 894 800 678 558 643 860 863 504 359 316
0 0 0 0 0 0 0 0 0 0 0 134 2 3 10 987 1079 1026 1008 1002 1035 1069 1164 1286 1406 1385 1344 1303 1051 935 1095 1286 1459 1427 1290 1067 883 842 828 856 883 884 757 642 579 558 451 338 288
0 0 0 0 0 0 0 0 0 0 0 33 0 0 0 811 765 934 918 1080 1073 1056 1043 1187 1101 1177 1309 1266 1110 954 1010 1153 1307 1261 1203 1019 899 887 810 762 817 846 964 896 737 515 343 254 235
0 0 0 0 0 0 0 0 0 0 0 0 41 324 601 576 708 1135 1211 1230 986 926 1127 1137 1034 1048 1005 994 1216 1055 1018 1135 1135 1105 1062 859 801 734 704 511 574 575 627 620 669 608 494 372 265
0 0 0 0 0 0 0 0 0 0 89 590 305 803 728 366 1009 1006 1105 826 785 767 856 1115 1081 819 770 698 862 1109 957 1038 1047 957 1028 659 372 441 384 305 374 643 611 573 525 479 432 374 368
0 0 0 0 0 0 0 0 0 0 765 1214 687 596 445 812 792 658 747 532 502 499 614 824 1079 687 746 765 714 676 634 666 577 575 588 212 152 153 252 383 588 655 742 693 604 546 539 441 41
0 0 0 0 0 0 0 0 0 0 414 981 137 623 415 714 602 413 444 461 493 438 483 662 716 568 626 675 672 591 508 482 339 344 277 108 70 19 120 21 32 61 241 163 90 54 14 3 0
0 0 0 0 0 0 0 0 0 0 0 656 878 628 476 599 468 368 228 208 357 516 574 345 375 416 546 565 412 460 442 236 172 188 188 82 9 0 0 7 7 7 0 11 1 0 0 0 0
0 0 0 0 0 0 0 0 0 0 0 0 708 415 495 535 397 332 141 5 96 270 436 428 281 313 292 433 247 239 281 170 95 54 79 39 6 0 0 4 7 6 1 0 0 0 0 0 0
0 0 0 0 0 0 0 0 0 0 0 0 600 405 501 551 410 241 89 10 10 23 54 96 78 0 141 167 90 112 79 60 2 0 4 32 2 0 0 0 0 0 0 0 0 0 0 0 0
0 0 0 0 0 0 0 0 0 0 0 0 878 608 631 480 428 288 126 4 0 0 0 2 16 0 36 17 5 0 1 0 0 0 0 26 11 0 0 0 11 21 0 0 0 0 0 0 0
0 0 0 0 0 0 0 0 0 0 0 0 545 921 621 839 534 638 439 281 138 67 27 31 28 3 0 0 0 0 0 0 3 0 1 15 28 11 16 98 315 190 30 35 125 66 0 0 0
0 0 0 0 0 0 0 0 0 0 0 217 1100 653 756 632 760 875 493 249 92 1 40 167 276 329 145 5 0 34 201 122 96 97 104 63 145 207 398 646 546 515 583 560 203 27 0 0 0
0 0 0 0 0 0 0 0 0 0 0 755 712 620 662 756 551 645 171 85 61 1 0 0 11 0 0 154 356 452 425 915 688 471 560 538 434 651 613 765 876 721 502 407 223 31 0 0 0
0 0 0 0 0 0 0 0 0 0 0 427 892 487 651 267 137 374 125 130 75 6 0 0 0 0 0 0 261 1118 1238 1107 1091 1117 1445 1436 1091 1166 940 884 930 715 587 262 199 189 54 0 0
0 0 0 0 0 0 0 0 0 0 0 14 515 229 0 4 17 137 198 280 176 25 17 0 0 0 0 0 84 1068 801 901 823 634 592 624 754 953 914 727 588 365 317 290 212 100 121 0 0
0 0 0 0 0 0 0 0 0 0 0 0 37 500 76 216 141 0 209 287 169 9 43 0 0 0 0 0 11 199 328 646 548 589 715 682 865 686 339 180 37 0 62 140 128 145 3 2 0
0 0 0 0 0 0 0 0 0 0 0 0 0 0 199 171 497 0 6 47 5 0 1 0 0 0 0 0 0 321 389 125 209 162 29 7 27 31 17 5 1 0 0 0 0 0 1 49 0
0 10 0 0 0 0 0 0 0 0 0 0 0 93 589 670 109 0 0 4 12 0 0 0 0 0 0 0 91 51 46 296 121 18 0 1 0 0 0 0 0 0 0 0 0 0 0 0 0
20 7 0 0 0 0 0 0 0 0 0 0 0 18 1080 988 234 3 0 0 22 0 0 0 0 72 299 262 129 157 215 88 1 0 0 0 0 0 0 0 0 0 0 0 0 0 0 0 0
2 49 63 4 0 0 0 0 0 0 0 0 0 0 1196 1686 1207 603 67 0 425 296 639 483 315 101 20 1 0 0 0 0 0 0 0 0 0 0 0 0 0 0 0 0 0 0 0 0 0
4 2 63 12 0 0 0 0 0 0 0 0 0 0 387 1664 1850 1525 1319 658 1097 993 432 197 7 0 0 0 0 0 0 0 0 0 0 0 0 0 0 0 0 0 0 0 0 0 0 0 0
23 17 0 0 0 0 0 0 0 0 0 0 0 0 49 850 29 7 648 1026 663 392 63 0 0 0 0 0 0 0 0 0 0 0 0 0 0 0 0 0 0 0 0 0 0 0 0 0 0
6 0 15 0 0 0 0 0 0 0 0 0 0 0 0 267 595 936 920 304 131 0 0 0 0 0 0 0 0 0 0 0 0 0 0 0 0 0 0 0 0 0 0 0 0 0 0 0 0
1 2 6 0 0 0 0 0 0 0 0 0 0 34 293 599 676 528 240 3 0 0 0 0 0 0 0 0 0 0 0 0 0 0 0 0 0 0 0 0 0 0 0 0 0 0 0 0 0
0 20 0 0 0 0 0 0 22 0 0 0 23 174 311 451 34 0 0 0 0 0 0 0 0 0 0 0 0 0 0 0 0 0 0 0 0 0 0 0 0 0 0 0 0 0 0 0 0
CIN
0 0 0 0 0 0 0 0 0 0 -187 -320 -275 -239 -218 -272 -190 -127 -512 -417 -292 -220 -147 -93 -82 -107 -129 -186 -167 -170 -163 -151 -178 -170 -133 -125 -126 -155 -192 -172 -161 -184 -196 -202 -195 -169 -147 -137 -144
0 0 0 0 0 0 0 0 0 0 0 -341 -354 -366 -275 -124 -338 -428 -450 -316 -272 -183 -142 -123 -72 -106 -140 -203 -196 -172 -149 -126 -156 -178 -202 -190 -160 -176 -250 -208 -199 -226 -219 -176 -140 -112 -112 -122 -151
0 0 0 0 0 0 0 0 0 -64 -131 -288 -95 -352 -282 -214 -214 -286 -468 -344 -199 -165 -144 -140 -77 -121 -126 -199 -226 -171 -148 -127 -123 -176 -221 -262 -244 -228 -204 -192 -178 -220 -194 -138 -113 -91 -107 -167 -174
0 0 0 0 0 0 0 0 0 -251 -260 -281 -312 -188 -330 -274 -192 -348 -411 -306 -206 -209 -166 -101 -118 -125 -131 -182 -233 -192 -177 -139 -117 -171 -221 -250 -290 -228 -201 -185 -162 -166 -188 -162 -84 -81 -159 -177 -181
0 0 0 0 0 0 0 0 0 0 -224 -233 -195 -192 -363 -338 -290 -379 -331 -289 -262 -259 -175 -141 -123 -142 -142 -165 -229 -213 -176 -135 -107 -150 -215 -242 -236 -235 -198 -187 -177 -191 -194 -158 -103 -107 -166 -193 -190
0 0 0 0 0 0 0 0 0 0 0 -250 -331 -184 -348 -352 -297 -355 -316 -339 -215 -233 -210 -188 -122 -122 -151 -156 -195 -237 -199 -159 -127 -138 -161 -198 -224 -232 -218 -187 -159 -146 -156 -165 -167 -163 -173 -193 -192
0 0 0 0 0 0 0 0 0 0 0 -272 0 0 0 -380 -376 -353 -392 -232 -153 -201 -227 -252 -214 -172 -144 -169 -213 -254 -232 -199 -154 -166 -176 -213 -227 -208 -203 -186 -153 -134 -104 -111 -133 -174 -212 -214 -211
0 0 0 0 0 0 0 0 0 0 0 -2 -289 -217 -316 -391 -360 -317 -280 -177 -175 -237 -203 -247 -245 -223 -223 -234 -185 -229 -222 -192 -183 -178 -189 -233 -241 -243 -240 -281 -228 -219 -182 -179 -158 -155 -169 -188 -219
0 0 0 0 0 0 0 0 0 0 -75 -136 -259 -189 -335 -460 -309 -303 -259 -289 -263 -282 -270 -243 -266 -299 -292 -316 -259 -193 -225 -202 -195 -205 -189 -279 -378 -338 -348 -349 -304 -191 -190 -173 -185 -192 -198 -197 -197
0 0 0 0 0 0 0 0 0 0 -63 -102 -111 -192 -332 -446 -431 -417 -407 -414 -400 -440 -386 -326 -269 -373 -348 -313 -313 -304 -295 -268 -303 -301 -302 -448 -476 -453 -378 -318 -235 -188 -156 -154 -158 -169 -158 -186 -414
0 0 0 0 0 0 0 0 0 0 -24 -105 -74 -225 -377 -418 -452 -462 -462 -461 -433 -428 -448 -387 -351 -390 -369 -345 -350 -362 -358 -366 -410 -402 -423 -515 -556 -478 -472 -568 -598 -511 -354 -385 -420 -458 -530 -67 0
0 0 0 0 0 0 0 0 0 0 0 -122 -106 -233 -446 -406 -391 -467 -544 -586 -548 -419 -398 -501 -489 -443 -369 -348 -419 -410 -406 -494 -535 -519 -516 -582 -696 0 0 -574 -615 -626 0 -600 -218 0 0 0 0
0 0 0 0 0 0 0 0 0 0 0 0 -131 -188 -385 -410 -430 -465 -506 -412 -601 -575 -479 -444 -501 -451 -455 -391 -513 -548 -547 -633 -704 -732 -699 -723 -802 0 0 -687 -641 -626 -391 0 0 0 0 0 0
0 0 0 0 0 0 0 0 0 0 0 0 -129 -180 -300 -376 -422 -441 -523 -713 -697 -664 -679 -646 -686 0 -607 -606 -715 -700 -745 -800 -180 -210 -828 -778 -476 0 0 0 0 0 0 0 0 0 0 0 0
0 0 0 0 0 0 0 0 0 0 0 0 -97 -184 -233 -319 -392 -438 -573 -658 0 0 0 -48 -708 0 -764 -843 -612 -68 -64 0 0 0 0 -779 -772 0 0 0 -462 -515 0 0 0 0 0 0 0
0 0 0 0 0 0 0 0 0 0 0 0 -149 -111 -242 -295 -359 -460 -492 -555 -622 -598 -668 -674 -442 -116 0 0 0 0 0 0 -861 -54 -156 -701 -642 -641 -597 -467 -333 -371 -513 -508 -409 -425 0 0 0
0 0 0 0 0 0 0 0 0 0 0 -216 -110 -172 -260 -364 -347 -380 -498 -611 -758 -255 -665 -591 -498 -387 -423 -218 0 -592 -443 -524 -607 -625 -574 -527 -429 -378 -272 -172 -180 -192 -157 -175 -291 -354 0 0 0
0 0 0 0 0 0 0 0 0 0 0 -172 -158 -201 -270 -310 -400 -433 -680 -774 -830 -244 0 -1 -894 0 0 -283 -105 -188 -228 -120 -201 -297 -272 -270 -314 -227 -191 -136 -119 -122 -156 -180 -245 -337 0 0 0
0 0 0 0 0 0 0 0 0 0 0 -211 -136 -248 -234 -378 -502 -414 -632 -682 -819 -430 0 0 0 0 0 0 -142 -60 -85 -94 -91 -111 -106 -138 -207 -152 -136 -116 -93 -114 -113 -214 -246 -239 -312 0 0
0 0 0 0 0 0 0 0 0 0 0 -175 -237 -308 0 -69 -560 -497 -485 -568 -555 -664 -455 0 0 0 0 -5 -149 -7 -69 -101 -93 -137 -195 -186 -165 -131 -108 -116 -131 -171 -159 -166 -201 -247 -214 -47 0
0 0 0 0 0 0 0 0 0 0 0 0 -142 -244 -437 -435 -409 0 -519 -563 -565 -330 -682 0 0 0 0 0 -284 -87 -19 -120 -152 -148 -136 -179 -145 -147 -202 -278 -352 -90 -241 -178 -183 -170 -107 -66 0
-1 0 0 0 0 0 0 0 0 0 0 0 0 0 -288 -352 -331 0 -479 -642 -493 0 -43 0 0 0 0 0 0 -26 -49 -122 -67 -125 -340 -405 -420 -377 -423 -361 -77 0 0 0 0 0 0 -166 0
0 -1 -1 0 0 0 0 0 0 0 0 0 0 -81 -286 -275 -496 -28 0 -672 -623 0 0 0 0 0 0 0 -42 -101 -192 -193 -239 -349 0 0 0 0 0 0 0 0 0 0 0 0 0 0 0
-4 -8 -4 0 0 0 0 0 0 0 0 0 0 -124 -246 -248 -398 -188 0 0 -754 0 0 0 0 -180 -108 -86 -176 -208 -268 -312 0 0 0 0 0 0 0 0 0 0 0 0 0 0 0 0 0
-15 -2 -2 -17 0 0 0 0 0 0 0 0 0 0 -209 -188 -252 -335 -394 0 -350 -381 -240 -219 -168 -223 -162 0 0 0 0 0 0 0 0 0 0 0 0 0 0 0 0 0 0 0 0 0 0
-28 0 -11 -34 0 0 0 0 0 0 0 0 0 0 -319 -173 -181 -225 -195 -323 -195 -194 -307 -308 -397 0 0 0 0 0 0 0 0 0 0 0 0 0 0 0 0 0 0 0 0 0 0 0 0
-1 0 -1 0 0 0 0 0 0 0 0 0 0 0 -425 -251 -415 -82 -285 -185 -282 -291 -457 0 0 0 0 0 0 0 0 0 0 0 0 0 0 0 0 0 0 0 0 0 0 0 0 0 0
-17 0 -30 0 0 0 0 0 0 0 0 0 0 0 0 -425 -313 -222 -216 -295 -399 0 0 0 0 0 0 0 0 0 0 0 0 0 0 0 0 0 0 0 0 0 0 0 0 0 0 0 0
0 0 0 0 0 0 0 0 0 0 0 0 0 -428 -411 -286 -264 -269 -327 -130 0 0 0 0 0 0 0 0 0 0 0 0 0 0 0 0 0 0 0 0 0 0 0 0 0 0 0 0 0
0 0 0 0 0 0 0 0 -403 0 0 0 -525 -386 -294 -280 -406 0 0 0 0 0 0 0 0 0 0 0 0 0 0 0 0 0 0 0 0 0 0 0 0 0 0 0 0 0 0 0 0
Wind_Speed
7 6 1 4 3 4 4 8 3 2 3 3 2 3 3 2 7 6 2 7 16 16 13 13 16 18 19 18 17 17 16 16 16 16 15 15 15 15 15 13 12 12 13 13 12 11 10 10 10
4 3 4 3 5 3 6 6 6 4 2 4 3 2 2 2 3 10 9 8 17 17 12 12 16 18 19 19 17 17 16 15 15 15 15 15 14 13 13 12 12 13 12 10 10 9 9 8 7
4 1 5 5 5 9 6 6 9 3 4 2 3 1 4 8 6 2 10 17 12 15 12 14 17 18 19 19 18 17 16 15 14 14 14 14 14 13 12 11 11 12 11 9 8 7 5 5 4
1 4 4 4 10 8 8 7 7 4 2 3 1 5 7 5 4 7 18 19 15 16 14 17 19 19 19 19 18 17 16 15 14 14 13 13 13 12 11 10 9 10 10 8 6 4 3 1 1
3 3 2 4 11 5 5 6 2 3 2 3 4 3 6 3 10 17 17 17 16 15 14 14 18 19 20 19 18 17 15 14 14 14 13 12 10 10 10 9 8 9 8 7 5 4 3 3 4
3 3 2 10 8 8 6 7 3 3 5 6 4 6 5 7 10 16 14 14 10 15 16 12 16 17 19 19 17 16 16 15 14 13 13 11 10 9 8 8 8 7 6 5 5 4 4 5 7
6 5 6 4 14 13 2 9 8 6 5 7 8 4 4 7 9 13 14 9 8 10 14 11 11 13 18 18 18 17 15 14 12 11 10 10 9 8 6 5 5 5 4 4 4 4 5 6 8
5 4 4 7 8 6 5 4 4 7 11 7 14 9 7 10 12 13 13 10 10 12 11 11 8 9 8 9 16 15 14 12 11 9 8 8 8 7 7 7 6 6 5 5 5 5 6 8 9
4 2 6 6 7 3 4 4 2 6 5 4 11 5 11 21 16 14 14 13 12 11 11 9 10 12 5 5 9 11 13 11 9 8 8 6 3 4 5 5 5 4 5 5 5 6 8 9 9
5 4 7 6 5 2 5 3 5 5 1 2 2 5 19 25 20 18 17 16 16 16 14 13 10 12 7 7 5 5 5 3 3 3 4 3 3 2 2 3 5 6 7 7 8 8 8 8 4
4 5 8 5 3 4 5 3 4 4 5 6 14 19 21 18 19 18 16 16 15 14 12 13 12 11 7 6 5 3 2 3 3 4 3 2 2 1 1 1 2 3 6 3 4 4 3 5 4
4 5 6 3 3 3 4 5 7 6 8 6 12 26 21 20 18 19 17 16 14 13 13 14 12 9 4 4 4 5 3 3 3 4 5 4 2 2 2 3 4 3 2 4 4 3 5 6 6
4 3 5 5 7 9 4 7 7 14 10 10 11 15 22 23 23 19 16 15 16 16 12 9 7 5 4 7 3 3 4 4 4 4 5 4 4 4 4 4 3 4 3 4 4 4 4 6 6
3 6 6 4 5 5 1 6 6 10 7 8 22 23 24 25 21 12 10 10 11 9 10 14 12 8 7 5 6 5 4 5 4 4 5 7 5 4 4 4 4 4 4 4 4 4 5 6 5
5 7 8 6 4 6 8 8 21 18 4 7 21 25 17 16 15 14 9 9 8 6 7 3 8 11 9 8 7 5 5 5 4 5 5 6 6 5 4 4 4 5 4 4 4 4 4 5 4
4 2 4 4 11 7 8 19 5 7 6 12 26 22 9 4 10 10 12 11 12 11 8 6 3 1 3 6 6 4 4 4 5 4 4 6 5 5 5 4 4 4 3 2 2 3 4 4 4
3 3 6 4 10 7 15 7 9 7 6 11 20 17 13 10 10 10 12 13 13 14 10 8 8 6 4 5 3 4 4 4 4 3 4 6 6 6 5 4 4 3 1 2 2 2 2 2 3
5 3 3 8 6 17 7 8 10 4 10 13 17 14 15 15 10 12 12 13 13 13 12 9 5 6 8 10 5 2 2 2 3 5 5 6 6 8 7 5 4 2 1 2 2 2 2 2 3
10 10 7 7 7 5 14 1 13 8 3 8 12 14 14 14 8 11 11 12 12 10 10 9 8 6 6 5 10 4 3 2 2 2 6 6 5 4 2 1 3 1 1 3 4 2 2 2 3
8 8 12 13 14 6 4 15 11 6 5 11 12 13 13 13 11 10 10 11 13 14 11 9 8 6 9 4 5 7 5 4 2 2 4 3 3 4 3 3 4 6 3 4 3 3 3 1 3
8 10 9 8 13 6 4 1 5 6 4 6 8 19 15 22 18 11 13 11 9 9 9 3 10 9 8 9 6 9 6 1 3 2 3 7 9 9 7 6 4 4 2 3 4 4 5 3 2
10 7 13 11 7 4 8 5 7 6 7 7 8 12 17 16 13 12 9 8 8 8 5 4 7 8 8 8 5 14 3 2 3 5 6 6 11 11 10 9 8 8 5 7 7 7 4 3 4
6 4 8 8 9 7 4 3 11 8 6 7 8 9 15 19 19 17 15 14 11 7 7 6 6 2 7 3 12 5 6 8 6 4 11 10 11 11 11 11 10 10 7 8 9 8 8 6 4
3 4 8 6 2 4 9 9 4 8 13 5 6 9 12 15 15 17 12 7 7 7 7 7 6 1 3 5 1 7 13 9 9 9 8 7 7 7 10 11 9 7 7 7 6 6 8 6 5
7 4 5 6 5 7 8 5 8 17 12 10 11 15 13 16 14 13 14 11 9 8 9 9 10 8 7 10 13 12 14 13 12 9 7 7 5 5 6 7 8 7 7 8 6 6 6 5 4
4 8 3 4 7 5 5 9 6 11 10 12 13 16 15 16 15 15 15 11 13 14 15 16 15 13 13 14 14 13 13 9 7 8 5 5 5 4 5 9 9 10 8 6 6 4 4 5 5
8 6 6 4 5 3 5 4 3 11 10 8 11 14 14 11 10 14 17 15 16 15 12 16 16 13 13 14 13 13 11 10 8 6 6 6 5 7 9 9 9 8 8 6 6 4 5 5 5
5 7 8 5 7 6 3 4 8 10 13 10 10 10 11 14 17 17 16 18 15 14 15 15 15 15 13 13 11 10 9 9 9 8 8 7 7 7 8 9 8 7 6 6 6 5 5 6 4
4 2 10 3 4 6 5 5 6 13 10 14 11 14 17 18 20 18 17 14 15 15 16 16 14 15 13 12 11 12 10 10 9 8 6 6 7 7 8 7 6 6 6 6 6 5 6 5 4
3 4 6 1 2 0 5 4 4 11 12 17 16 18 17 20 19 18 19 16 15 17 15 14 13 13 11 11 11 10 9 8 8 7 7 6 7 6 6 5 6 6 6 6 7 6 4 4 6
Wind_Direction
329 310 131 42 60 71 229 245 264 342 153 171 287 166 191 298 153 211 40 113 129 145 150 147 145 138 132 129 128 126 123 123 123 120 120 120 119 121 123 126 130 131 130 132 131 125 121 114 109
317 334 45 84 124 170 238 225 231 196 321 150 160 149 236 221 247 113 122 137 141 148 150 146 151 142 136 134 134 131 129 126 125 125 124 122 122 125 129 135 140 137 137 137 131 125 120 113 107
297 14 107 151 180 202 221 181 216 10 100 135 236 58 24 320 344 137 121 141 143 154 151 152 153 146 141 138 140 137 136 133 132 132 131 130 132 135 140 142 144 143 142 142 135 129 125 122 118
58 14 23 148 223 243 177 168 122 116 339 341 340 81 328 251 231 147 138 140 148 157 159 154 155 151 145 143 146 145 145 143 141 141 140 141 144 145 145 145 148 152 150 149 144 145 157 172 198
45 58 157 222 246 238 196 261 47 128 131 32 333 281 302 38 104 120 136 138 151 159 162 153 157 154 148 148 150 148 148 147 149 152 153 153 149 145 149 151 152 155 161 161 163 179 222 266 293
78 102 119 219 244 241 214 169 202 167 246 139 134 157 261 107 124 133 136 132 159 157 162 151 158 157 150 150 154 154 157 161 162 161 160 159 159 156 154 153 159 165 167 175 191 219 261 284 302
134 115 212 215 239 254 164 162 210 162 200 221 174 116 261 118 127 128 121 124 155 158 158 149 157 164 158 157 159 161 166 167 168 167 162 158 158 159 155 153 165 174 183 194 216 246 268 285 297
132 118 212 218 208 280 167 214 229 157 221 199 174 180 213 137 146 123 116 132 155 166 166 154 150 157 160 164 163 161 169 170 170 166 159 162 158 156 159 172 190 197 207 223 238 257 281 289 294
127 172 222 213 189 205 28 82 213 227 173 197 182 157 142 134 137 130 132 151 165 171 174 156 153 164 156 150 169 162 168 168 163 168 170 165 145 167 176 193 213 225 234 252 259 263 266 277 289
163 190 216 201 192 222 46 74 324 3 338 324 136 118 147 144 150 155 162 167 177 172 174 173 162 170 155 158 141 124 154 134 143 159 166 157 154 186 203 221 230 245 241 249 262 267 275 287 286
194 206 226 268 299 308 128 345 291 307 233 168 203 153 158 153 159 165 172 168 175 177 169 174 174 173 166 149 142 137 137 143 158 175 163 166 148 227 284 300 284 271 264 251 266 284 286 282 278
265 218 245 273 326 328 75 343 311 250 227 208 219 167 151 163 176 174 174 177 164 174 174 175 174 169 142 133 157 162 152 156 174 187 174 170 194 220 249 256 258 257 271 276 263 271 270 269 263
235 273 280 288 277 275 140 255 243 273 271 263 191 190 166 176 184 185 173 173 170 169 164 162 138 125 124 164 167 165 174 183 185 192 195 183 195 201 203 230 240 242 227 241 262 262 268 267 261
302 283 271 270 254 276 228 254 205 252 166 287 173 189 179 186 183 163 158 162 167 161 161 154 154 155 159 170 179 192 195 196 191 192 203 201 197 199 213 242 256 248 211 222 243 253 261 264 261
257 309 288 228 169 232 180 262 231 242 254 241 197 192 187 184 169 179 144 135 141 93 114 148 165 163 172 182 188 191 205 198 199 208 207 206 199 208 204 228 250 256 238 249 254 267 263 266 281
305 222 248 254 168 233 141 257 259 235 195 254 197 183 146 123 143 122 122 106 99 87 99 92 64 133 252 183 187 198 205 199 215 205 194 221 211 191 205 224 233 240 212 229 247 265 275 277 265
311 246 218 324 192 184 191 251 251 226 230 208 175 167 145 120 109 110 117 119 115 110 91 72 66 55 339 286 234 202 205 227 223 200 198 215 200 192 209 226 246 230 226 239 274 275 264 294 300
209 219 280 195 219 206 216 237 288 307 167 183 172 166 150 141 137 122 119 125 123 122 122 122 91 64 44 7 298 281 237 277 246 223 220 199 192 196 202 213 233 256 270 307 307 322 348 337 321
306 310 317 317 231 210 224 194 257 284 116 151 153 151 150 132 130 130 127 125 126 135 133 136 141 118 73 358 333 268 195 203 251 217 216 207 203 194 147 121 227 26 346 13 26 8 352 305 323
270 288 286 291 265 228 188 214 231 230 216 178 163 148 131 133 134 139 156 153 163 170 173 173 162 143 108 53 336 261 269 215 234 213 64 34 51 86 125 64 28 33 7 9 26 16 331 313 331
248 232 259 256 323 269 134 276 195 227 245 166 197 155 150 149 153 165 177 184 187 178 198 134 126 103 136 143 229 257 213 233 95 48 44 35 56 47 43 49 7 358 359 5 10 11 4 339 316
256 254 241 259 296 241 168 212 216 192 189 170 157 152 156 165 163 157 178 207 196 193 129 136 128 139 214 151 301 247 164 156 37 65 80 64 55 54 56 53 55 61 49 46 39 23 10 6 19
242 254 246 252 265 332 223 95 203 143 164 189 174 157 159 166 165 172 187 199 194 112 114 161 98 66 55 25 249 141 148 92 92 70 77 48 48 51 54 57 56 47 45 48 48 38 31 32 35
267 282 250 225 170 251 234 166 234 168 186 159 138 157 173 160 171 175 169 145 140 117 125 114 121 24 188 196 115 93 93 94 89 70 64 56 53 48 53 63 64 61 55 49 43 40 39 32 35
196 84 184 188 189 219 195 151 214 198 146 156 155 164 177 168 163 160 156 163 143 144 116 105 124 115 93 84 71 71 74 71 76 75 75 75 60 48 38 58 57 54 48 47 41 43 42 27 36
153 153 273 124 168 180 180 198 243 158 150 155 151 164 162 173 162 157 147 141 132 121 120 120 116 98 86 81 72 71 74 82 81 90 94 91 87 81 62 67 64 57 52 47 38 39 32 29 36
140 177 227 298 246 119 190 246 69 135 133 147 142 147 164 154 118 120 125 128 123 121 107 104 96 84 82 82 84 81 82 90 91 82 70 67 61 71 68 69 66 51 46 42 41 45 34 33 27
170 74 228 219 150 168 246 150 169 147 161 161 136 117 121 117 111 115 114 122 113 107 101 90 94 96 89 88 88 87 85 75 72 67 62 58 62 78 78 67 60 52 44 38 40 34 21 38 11
125 207 224 251 173 163 131 221 217 163 172 151 116 120 128 120 121 119 110 106 107 104 103 101 94 96 93 90 88 84 76 72 67 66 58 61 64 71 72 70 69 58 47 31 39 30 22 19 355
112 243 279 227 115 255 133 270 42 156 149 118 122 123 125 119 116 114 111 116 109 104 101 99 101 97 95 93 88 83 81 77 75 67 58 57 69 76 88 81 71 57 44 31 32 20 356 10 7